CW2074 Weather Reports


Display with metric or nautical units.
time (UTC)temp
F
wind
direction
speed
MPH
gust
MPH
rain 1hr
in
rain 24hr
in
rain mn
in
humidity
%
barometer
mb
20171023073859 67 61 0.0 3.0 0.00 0.01 0.01 90 1016.6
20171023072254 67 98 0.0 3.0 0.00 0.01 0.01 90 1016.8
20171023070552 67 78 0.0 3.0 0.00 0.01 0.01 90 1017.2
20171023064940 67 78 0.0 3.0 0.00 0.01 0.01 90 1017.3
20171023063309 67 86 0.0 5.0 0.00 0.01 0.01 90 1017.7
20171023061651 67 93 0.0 1.0 0.00 0.01 0.01 90 1018.1
20171023055959 67 71 0.0 3.0 0.00 0.01 0.01 91 1018.2
20171023054314 67 81 0.0 1.0 0.01 0.01 0.01 91 1018.5
20171023052732 67 119 0.0 2.0 0.01 0.01 0.01 91 1018.7
20171023051057 67 16 0.0 2.0 0.01 0.01 0.01 91 1018.8
20171023045401 67 71 0.0 2.0 0.00 0.00 0.00 91 1019.3
20171023043732 66 49 0.0 4.0 0.00 0.00 0.00 91 1019.4
20171023042101 66 90 0.0 1.0 0.00 0.00 0.00 91 1019.6
20171023040431 66 50 0.0 3.0 0.00 0.00 0.00 91 1019.9
20171023034814 66 118 0.0 4.0 0.00 0.00 0.00 91 1020.3
20171023033115 66 98 0.0 2.0 0.00 0.00 0.00 92 1020.3
20171023031625 66 90 0.0 3.0 0.00 0.00 0.00 92 1020.4
20171023025815 66 88 0.0 3.0 0.00 0.00 0.00 92 1020.4
20171023024212 66 94 0.0 3.0 0.00 0.00 0.00 92 1020.4
20171023022602 66 111 1.0 4.0 0.00 0.00 0.00 92 1020.4
20171023021013 66 340 0.0 1.0 0.00 0.00 0.00 92 1020.6
20171023015351 66 55 0.0 2.0 0.00 0.00 0.00 92 1020.6
20171023013650 66 67 0.0 3.0 0.00 0.00 0.00 92 1020.6
20171023012154 66 57 0.0 5.0 0.00 0.00 0.00 92 1020.5
20171023010346 66 87 0.0 2.0 0.00 0.00 0.00 92 1020.6
20171023004751 66 107 0.0 9.0 0.00 0.00 0.00 92 1020.4
20171023003028 66 74 0.0 3.0 0.00 0.00 0.00 92 1020.5
20171023001421 67 347 0.0 4.0 0.00 0.00 0.00 92 1020.3
20171022235758 67 33 0.0 3.0 0.00 0.00 0.00 92 1020.6
20171022234130 67 81 0.0 2.0 0.00 0.00 0.00 92 1020.8
20171022232517 67 74 0.0 3.0 0.00 0.00 0.00 91 1020.9
20171022230801 68 161 0.0 3.0 0.00 0.00 0.00 90 1021.0
20171022225203 70 217 0.0 5.0 0.00 0.00 0.00 87 1020.9
20171022223512 72 192 1.0 8.0 0.00 0.00 0.00 81 1020.5
20171022221853 72 28 1.0 7.0 0.00 0.00 0.00 78 1020.4
20171022220303 72 179 0.0 3.0 0.00 0.00 0.00 78 1020.5
20171022214621 73 90 0.0 3.0 0.00 0.00 0.00 76 1020.4
20171022213017 73 54 1.0 8.0 0.00 0.00 0.00 75 1020.5
20171022211355 74 42 1.0 4.0 0.00 0.00 0.00 74 1020.4
20171022205740 75 101 1.0 3.0 0.00 0.00 0.00 73 1020.4
20171022204013 76 105 0.0 3.0 0.00 0.00 0.00 72 1020.4
20171022202401 77 87 1.0 4.0 0.00 0.00 0.00 69 1020.5
20171022200817 77 96 1.0 4.0 0.00 0.00 0.00 67 1020.5
20171022195149 77 134 0.0 2.0 0.00 0.00 0.00 68 1020.6
20171022193420 77 141 0.0 3.0 0.00 0.00 0.00 68 1020.7
20171022191751 76 190 0.0 3.0 0.00 0.00 0.00 70 1020.9
20171022190127 76 90 1.0 5.0 0.00 0.00 0.00 67 1021.1
20171022184522 76 69 1.0 4.0 0.00 0.00 0.00 69 1021.2
20171022182856 77 116 1.0 5.0 0.00 0.00 0.00 65 1021.3
20171022181214 79 74 1.0 7.0 0.00 0.00 0.00 64 1021.5
20171022175603 78 251 0.0 10.0 0.00 0.00 0.00 67 1021.4
20171022173945 78 92 2.0 8.0 0.00 0.00 0.00 63 1022.1
20171022172218 77 173 1.0 7.0 0.00 0.00 0.00 67 1022.5
20171022170721 77 83 1.0 5.0 0.00 0.00 0.00 70 1022.7
20171022165031 76 301 1.0 4.0 0.00 0.00 0.00 72 1023.2
20171022163335 76 69 3.0 8.0 0.00 0.00 0.00 71 1023.7
20171022161650 74 73 1.0 4.0 0.00 0.00 0.00 75 1023.8
20171022160000 73 345 1.0 5.0 0.00 0.00 0.00 77 1024.0
20171022154350 72 22 1.0 8.0 0.00 0.00 0.00 79 1023.9
20171022152734 71 75 1.0 8.0 0.00 0.00 0.00 80 1024.2
20171022151101 70 103 1.0 6.0 0.00 0.00 0.00 81 1024.2
20171022145422 69 243 0.0 5.0 0.00 0.00 0.00 85 1024.6
20171022143810 67 26 1.0 4.0 0.00 0.00 0.00 88 1024.9
20171022142157 66 183 0.0 3.0 0.00 0.00 0.00 89 1025.2
20171022140501 65 128 0.0 2.0 0.00 0.00 0.00 91 1025.3
20171022134752 63 78 0.0 3.0 0.00 0.00 0.00 92 1025.4
20171022133125 61 355 0.0 3.0 0.00 0.00 0.00 92 1025.3
20171022131432 59 94 0.0 2.0 0.00 0.00 0.00 91 1025.3
20171022125859 58 360 0.0 1.0 0.00 0.00 0.00 91 1024.9
20171022124149 57 360 0.0 0.0 0.00 0.00 0.00 91 1024.7
20171022122549 55 360 0.0 0.0 0.00 0.00 0.00 92 1024.7
20171022120903 55 360 0.0 0.0 0.00 0.00 0.00 92 1024.5
20171022115244 55 360 0.0 0.0 0.00 0.00 0.00 92 1024.2
20171022113636 55 360 0.0 0.0 0.00 0.00 0.00 92 1024.1
20171022111857 55 360 0.0 0.0 0.00 0.00 0.00 92 1024.0
20171022110240 55 360 0.0 0.0 0.00 0.00 0.00 92 1024.1
20171022104633 54 360 0.0 0.0 0.00 0.00 0.00 92 1023.6
20171022103022 55 360 0.0 0.0 0.00 0.00 0.00 92 1023.7
20171022101413 54 360 0.0 0.0 0.00 0.00 0.00 92 1023.7
20171022095713 54 360 0.0 0.0 0.00 0.00 0.00 92 1023.6
20171022094104 54 360 0.0 0.0 0.00 0.00 0.00 92 1023.9
20171022092451 54 360 0.0 0.0 0.00 0.00 0.00 92 1023.9
20171022090833 55 360 0.0 0.0 0.00 0.00 0.00 92 1023.7
20171022085108 55 360 0.0 0.0 0.00 0.00 0.00 92 1023.9
20171022083450 55 360 0.0 0.0 0.00 0.00 0.00 92 1023.8
20171022081832 55 360 0.0 0.0 0.00 0.00 0.00 92 1023.7
20171022080248 55 360 0.0 0.0 0.00 0.00 0.00 92 1023.8